Regional Weather Roundup
Issued by NWS

Home | Current Version | Previous Version | Graphics & Text | Print | Product List | Glossary On
Versions: 1 2 3 4 5 6 7 8 9 10 11 12 13 14 15 16 17 18 19 20 21 22 23 24 25 26 27 28 29 30 31 32 33 34 35 36 37 38 39 40 41 42 43 44 45 46 47 48 49 50
479
ASUS43 KLSX 260007
RWRMO

WEATHER SUMMARY FOR MISSOURI
NATIONAL WEATHER SERVICE SPRINGFIELD MO
700 PM CDT SUN SEP 25 2016

NOTE: "FAIR" INDICATES FEW OR NO CLOUDS BELOW 12,000 FEET WITH NO
       SIGNIFICANT WEATHER AND/OR OBSTRUCTIONS TO VISIBILITY.
       CURRENT SKY AND/OR WEATHER CONDITIONS ARE NOT AVAILABLE FOR
       CHILLICOTHE AND FARMINGTON.

MOZ001>031-035>038-043-044-053-054-260100-
...NORTHERN AND WESTERN MISSOURI...

CITY           SKY/WX    TMP DP  RH WIND       PRES   REMARKS
KANSAS CTY INT CLOUDY    63  56  78 W5        30.14S
6HR MIN TEMP:  62; 6HR MAX TEMP:  65;

KANSAS C DTWN  CLOUDY    66  56  70 W5        30.14R
6HR MIN TEMP:  63; 6HR MAX TEMP:  67; 6HR PCP: TRACE;

LEE`S SUMMIT   CLOUDY    63  57  81 W5        30.14S
6HR MIN TEMP:  62; 6HR MAX TEMP:  64; 6HR PCP: TRACE;

ST JOSEPH      CLOUDY    65  56  72 W5        30.14R
6HR MIN TEMP:  63; 6HR MAX TEMP:  68;

CHILLICOTHE      N/A     66  55  67 CALM      30.12S
6HR MIN TEMP:  65; 6HR MAX TEMP:  68;

KIRKSVILLE     CLOUDY    64  56  75 W8        30.10R
6HR MIN TEMP:  64; 6HR MAX TEMP:  75; 6HR PCP: TRACE;


$$
MOZ066>068-077>081-088>096-101>105-260100-
...SOUTHWEST MISSOURI...

CITY           SKY/WX    TMP DP  RH WIND       PRES   REMARKS
SPRINGFIELD    LGT RAIN  71  67  87 NW3       30.11R
6HR MIN TEMP:  70; 6HR MAX TEMP:  84; 6HR PCP: TRACE;

JOPLIN         LGT RAIN  65  62  90 NE8       30.14R
6HR MIN TEMP:  65; 6HR MAX TEMP:  79; 6HR PCP:  0.08;

BRANSON        MOCLDY    75  68  78 NW12      30.07R

$$
MOZ032>034-039>042-045>050-055>058-069>072-260100-
...CENTRAL MISSOURI...

CITY           SKY/WX    TMP DP  RH WIND       PRES   REMARKS
COLUMBIA       CLOUDY    73  64  73 NW15      30.07R
6HR MIN TEMP:  73; 6HR MAX TEMP:  83;

JEFFERSON CITY CLOUDY    76  67  73 NW7       30.05R
6HR MIN TEMP:  76; 6HR MAX TEMP:  84;

ROLLA          PTCLDY    75  68  78 NW13      30.04R
6HR MIN TEMP:  75; 6HR MAX TEMP:  87; 6HR PCP:  0.08;

SEDALIA        CLOUDY    65  55  70 NW12      30.13R
6HR MIN TEMP:  65; 6HR MAX TEMP:  79;

WHITEMAN AFB   CLOUDY    63  61  94 N8        30.11S
OSAGE BEACH    CLOUDY    74  67  78 NW3       30.08R

$$
MOZ051-052-059>065-260100-
...EAST CENTRAL MISSOURI...

CITY           SKY/WX    TMP DP  RH WIND       PRES   REMARKS
ST LOUIS INTL  MOCLDY    85  66  53 W9        29.99S
6HR MIN TEMP:  85; 6HR MAX TEMP:  91;

SPIRIT OF STL  CLOUDY    80  70  71 W7        29.98R
6HR MIN TEMP:  80; 6HR MAX TEMP:  89;

ST CHARLES     PTCLDY    82  68  62 W8        29.98R
6HR MIN TEMP:  82; 6HR MAX TEMP:  89;


$$
MOZ072>076-082>087-097>100-106>115-260100-
...SOUTH CENTRAL AND SOUTHEAST MISSOURI...

CITY           SKY/WX    TMP DP  RH WIND       PRES   REMARKS
CAPE GIRARDEAU CLEAR     78  72  81 CALM      29.98R
6HR MIN TEMP:  78; 6HR MAX TEMP:  90;

FARMINGTON     CLEAR     78  72  81 CALM      30.02S
6HR MIN TEMP:  78; 6HR MAX TEMP:  88;

WEST PLAINS    PTCLDY    80  68  66 CALM      30.06R
6HR MIN TEMP:  80; 6HR MAX TEMP:  88;


$$



USA.gov is the U.S. government's official web portal to all federal, state and local government web resources and services.